User: anonymous   Login
Location: Oberwangen
(47.4286°N, 8.9679°E)
Time: 21:41:12
(UTC+00:00)
Language:

deb Kosmos-249 - Orbit

View from above orbital plane
View from above orbital plane
View from above satellite
View from above satellite

Ground track
Ground track

The orbit data is extracted from the following two-line orbital elements,

1 03755U 68091AT  22021.37801081 -.00000324  00000-0 -29412-3 0  9991
2 03755  62.2474  48.5573 0789559 130.8815 236.3366 12.77227583437768
Epoch (UTC): 21 January 2022 09:04:20
Eccentricity: 0.0789559
inclination: 62.2474°
perigee height: 742 km
apogee height: 1963 km
right ascension of ascending node: 48.5573°
argument of perigee: 130.8815°
revolutions per day: 12.77227583
mean anomaly at epoch: 236.3366°
orbit number at epoch: 43776

The dashed part of the orbit path shows where the satellite is in the earth's shadow,  

DLR